PD2BVG-13 Weather Reports


Display with metric or nautical units.
time (UTC)temp
F
wind
direction
speed
MPH
gust
MPH
rain 1hr
in
rain 24hr
in
rain mn
in
humidity
%
barometer
mb
20190718090327 68 198 5.0 14.0 0.00 0.00 0.00 78 1011.1
20190718085826 67 244 6.0 13.0 0.00 0.00 0.00 77 1011.1
20190718085330 67 210 5.0 12.0 0.00 0.00 0.00 76 1011.1
20190718084814 67 230 4.0 12.0 0.00 0.00 0.00 78 1011.0
20190718084332 67 240 5.0 15.0 0.00 0.00 0.00 78 1011.0
20190718083816 67 225 6.0 15.0 0.00 0.00 0.00 76 1010.8
20190718083325 68 239 4.0 11.0 0.00 0.00 0.00 76 1010.8
20190718082820 68 282 4.0 14.0 0.00 0.00 0.00 76 1010.7
20190718082325 69 217 6.0 15.0 0.00 0.00 0.00 77 1010.6
20190718081830 68 252 3.0 13.0 0.00 0.00 0.00 79 1010.7
20190718081333 67 248 5.0 10.0 0.00 0.00 0.00 77 1010.7
20190718080817 67 228 5.0 15.0 0.00 0.00 0.00 77 1010.7
20190718080321 67 228 5.0 15.0 0.00 0.00 0.00 78 1010.7
20190718075831 67 221 6.0 11.0 0.00 0.00 0.00 79 1010.8
20190718075314 66 243 5.0 9.0 0.00 0.00 0.00 80 1010.7
20190718074819 66 222 5.0 12.0 0.00 0.00 0.00 79 1010.7
20190718074323 67 233 5.0 12.0 0.00 0.00 0.00 79 1010.7
20190718073827 67 199 5.0 9.0 0.00 0.00 0.00 80 1010.5
20190718073326 66 243 4.0 8.0 0.00 0.00 0.00 81 1010.6
20190718072832 66 228 4.0 10.0 0.00 0.00 0.00 82 1010.4
20190718072315 66 236 3.0 10.0 0.00 0.00 0.00 81 1010.5
20190718071820 66 185 5.0 10.0 0.00 0.00 0.00 81 1010.6
20190718071324 66 218 5.0 10.0 0.00 0.00 0.00 81 1010.6
20190718070829 66 233 4.0 11.0 0.00 0.00 0.00 82 1010.6
20190718070333 66 215 4.0 11.0 0.00 0.00 0.00 82 1010.7
20190718065822 66 247 4.0 10.0 0.00 0.00 0.00 82 1010.7
20190718065327 65 185 4.0 9.0 0.00 0.00 0.00 83 1010.7
20190718064831 65 230 4.0 10.0 0.00 0.00 0.00 83 1010.7
20190718064325 65 258 5.0 10.0 0.00 0.00 0.00 84 1010.7
20190718063829 65 237 4.0 9.0 0.00 0.00 0.00 84 1010.7
20190718063317 65 223 2.0 10.0 0.00 0.00 0.00 84 1010.7
20190718062821 64 217 4.0 10.0 0.00 0.00 0.00 84 1010.6
20190718062325 64 241 4.0 10.0 0.00 0.00 0.00 85 1010.5
20190718061818 64 199 5.0 10.0 0.00 0.00 0.00 85 1010.5
20190718061323 63 233 3.0 10.0 0.00 0.00 0.00 86 1010.6
20190718060827 63 245 5.0 11.0 0.00 0.00 0.00 86 1010.6
20190718060325 63 235 4.0 10.0 0.00 0.00 0.00 85 1010.6
20190718055827 63 245 4.0 10.0 0.00 0.00 0.00 86 1010.6
20190718055330 63 217 4.0 8.0 0.00 0.00 0.00 86 1010.7
20190718054828 63 240 4.0 8.0 0.00 0.00 0.00 86 1010.7
20190718054332 63 244 4.0 7.0 0.00 0.00 0.00 86 1010.7
20190718053820 63 213 3.0 8.0 0.00 0.00 0.00 86 1010.6
20190718053324 63 232 4.0 7.0 0.00 0.00 0.00 85 1010.6
20190718052829 63 225 4.0 7.0 0.00 0.00 0.00 86 1010.7
20190718052333 63 212 4.0 9.0 0.00 0.00 0.00 85 1010.7
20190718051816 63 240 5.0 9.0 0.00 0.00 0.00 86 1010.7
20190718051321 63 229 6.0 9.0 0.00 0.00 0.00 86 1010.6
20190718050833 62 229 2.0 8.0 0.00 0.00 0.00 86 1010.6
20190718050317 62 216 4.0 8.0 0.00 0.00 0.00 86 1010.6
20190718045817 62 228 2.0 6.0 0.00 0.00 0.00 87 1010.6
20190718045332 62 206 3.0 7.0 0.00 0.00 0.00 87 1010.5
20190718044816 62 198 2.0 7.0 0.00 0.00 0.00 87 1010.5
20190718044315 62 226 2.0 7.0 0.00 0.00 0.00 87 1010.5
20190718043823 62 196 3.0 8.0 0.00 0.00 0.00 87 1010.6
20190718043328 62 198 1.0 6.0 0.00 0.00 0.00 88 1010.6
20190718042832 62 228 2.0 6.0 0.00 0.00 0.00 88 1010.6
20190718042317 62 237 1.0 4.0 0.00 0.00 0.00 88 1010.6
20190718041818 62 241 1.0 4.0 0.00 0.00 0.00 87 1010.6
20190718041321 63 238 1.0 4.0 0.00 0.00 0.00 87 1010.7
20190718040826 63 217 1.0 5.0 0.00 0.00 0.00 87 1010.8
20190718040321 63 236 1.0 6.0 0.00 0.00 0.00 87 1010.7
20190718035822 63 214 2.0 6.0 0.00 0.00 0.00 87 1010.8
20190718035326 63 206 1.0 5.0 0.00 0.00 0.00 87 1010.8
20190718034830 63 254 1.0 5.0 0.00 0.00 0.00 87 1010.8
20190718034318 63 247 1.0 6.0 0.00 0.00 0.00 86 1010.8
20190718033822 63 245 2.0 6.0 0.00 0.00 0.00 86 1010.9
20190718033326 63 233 2.0 8.0 0.00 0.00 0.00 87 1010.8
20190718032830 63 264 1.0 8.0 0.00 0.00 0.00 87 1010.8
20190718032333 63 258 2.0 9.0 0.00 0.00 0.00 88 1010.7
20190718031817 64 229 1.0 9.0 0.00 0.00 0.00 88 1010.8
20190718031321 64 248 2.0 8.0 0.00 0.00 0.00 88 1010.7
20190718030815 64 245 1.0 7.0 0.00 0.00 0.00 88 1010.7
20190718030322 64 255 1.0 8.0 0.00 0.00 0.00 88 1010.8
20190718025824 64 241 2.0 8.0 0.00 0.00 0.00 88 1010.8
20190718025327 64 255 2.0 8.0 0.00 0.00 0.00 88 1010.8
20190718024815 64 244 2.0 7.0 0.00 0.00 0.00 88 1010.8
20190718024319 64 245 1.0 6.0 0.00 0.00 0.00 87 1010.7
20190718023822 64 235 0.0 3.0 0.00 0.00 0.00 87 1010.7
20190718023327 64 233 0.0 5.0 0.00 0.00 0.00 86 1010.8
20190718022831 64 233 2.0 5.0 0.00 0.00 0.00 86 1010.8
20190718022316 64 232 0.0 4.0 0.00 0.00 0.00 86 1010.8
20190718021820 64 232 1.0 4.0 0.00 0.00 0.00 86 1010.8
20190718021317 64 232 1.0 4.0 0.00 0.00 0.00 85 1010.8
20190718020821 64 232 1.0 4.0 0.00 0.00 0.00 85 1010.9
20190718020317 64 237 0.0 4.0 0.00 0.00 0.00 85 1011.0
20190718015831 64 237 0.0 4.0 0.00 0.00 0.00 86 1011.0
20190718015315 64 236 0.0 4.0 0.00 0.00 0.00 86 1011.0
20190718014818 64 236 0.0 4.0 0.00 0.00 0.00 86 1011.1
20190718014327 65 237 1.0 3.0 0.00 0.00 0.00 86 1011.1
20190718013831 65 236 1.0 3.0 0.00 0.00 0.00 86 1011.1
20190718013315 65 236 0.0 5.0 0.00 0.00 0.00 86 1011.1
20190718012831 65 236 0.0 5.0 0.00 0.00 0.00 86 1011.1
20190718012315 65 245 0.0 6.0 0.00 0.00 0.00 85 1011.2
20190718011820 65 254 1.0 6.0 0.00 0.00 0.00 85 1011.3
20190718011315 66 236 1.0 7.0 0.00 0.00 0.00 84 1011.3
20190718010820 66 237 2.0 7.0 0.00 0.00 0.00 83 1011.3
20190718010323 66 233 2.0 6.0 0.00 0.00 0.00 82 1011.4
20190718005825 66 235 2.0 6.0 0.00 0.00 0.00 81 1011.4
20190718005328 66 233 3.0 6.0 0.00 0.00 0.00 81 1011.4
20190718004816 65 233 2.0 4.0 0.00 0.00 0.00 83 1011.4
20190718004319 65 203 0.0 6.0 0.00 0.00 0.00 83 1011.5
20190718003824 65 203 3.0 6.0 0.00 0.00 0.00 83 1011.4
20190718003316 64 200 4.0 6.0 0.00 0.00 0.00 84 1011.5
20190718002821 64 201 3.0 6.0 0.00 0.00 0.00 84 1011.6
20190718002325 65 192 3.0 6.0 0.00 0.00 0.00 84 1011.5
20190718001819 65 191 3.0 5.0 0.00 0.00 0.00 83 1011.6
20190718001323 65 164 1.0 6.0 0.00 0.00 0.00 84 1011.5
20190718000828 65 164 2.0 6.0 0.00 0.00 0.00 84 1011.6
20190718000324 65 156 1.0 6.0 0.00 0.00 0.00 83 1011.6
20190717235826 65 156 2.0 6.0 0.00 0.00 0.00 83 1011.7
20190717235329 65 167 2.0 5.0 0.00 0.00 0.00 82 1011.7
20190717234826 65 173 3.0 5.0 0.00 0.00 0.00 82 1011.7
20190717234334 65 177 2.0 4.0 0.00 0.00 0.00 82 1011.7
20190717233818 65 161 3.0 4.0 0.00 0.00 0.00 82 1011.7
20190717233334 65 169 2.0 4.0 0.00 0.00 0.00 82 1011.7
20190717232818 66 169 2.0 4.0 0.00 0.00 0.00 81 1011.8
20190717232322 66 168 1.0 4.0 0.00 0.00 0.00 80 1011.8
20190717231816 67 168 2.0 7.0 0.00 0.00 0.00 79 1011.8
20190717231320 67 166 3.0 7.0 0.00 0.00 0.00 79 1011.8
20190717230825 67 160 2.0 6.0 0.00 0.00 0.00 78 1011.8
20190717230320 67 160 2.0 6.0 0.00 0.00 0.00 77 1011.8
20190717225821 67 135 2.0 7.0 0.00 0.00 0.00 77 1011.9
20190717225324 68 155 3.0 7.0 0.00 0.00 0.00 77 1011.9
20190717224829 68 143 3.0 6.0 0.00 0.00 0.00 77 1011.9
20190717224317 68 157 2.0 5.0 0.00 0.00 0.00 77 1011.9
20190717223820 67 164 2.0 8.0 0.00 0.00 0.00 77 1011.9
20190717223315 67 140 2.0 6.0 0.00 0.00 0.00 79 1011.9
20190717222819 67 160 2.0 4.0 0.00 0.00 0.00 79 1012.0
20190717222324 67 136 2.0 6.0 0.00 0.00 0.00 80 1011.9
20190717221818 67 134 3.0 7.0 0.00 0.00 0.00 79 1011.9
20190717221322 67 139 3.0 4.0 0.00 0.00 0.00 79 1012.0
20190717220826 67 131 2.0 6.0 0.00 0.00 0.00 79 1012.0
20190717220347 67 131 3.0 5.0 0.00 0.00 0.00 79 1012.0
20190717215828 67 144 2.0 7.0 0.00 0.00 0.00 79 1012.0
20190717215332 67 135 3.0 7.0 0.00 0.00 0.00 80 1012.0
20190717214816 67 133 2.0 4.0 0.00 0.00 0.00 81 1011.9
20190717214315 67 125 2.0 4.0 0.00 0.00 0.00 81 1011.9
20190717213819 67 120 2.0 6.0 0.00 0.00 0.00 81 1012.0
20190717213324 67 131 3.0 7.0 0.00 0.00 0.00 82 1012.1
20190717212820 67 117 3.0 5.0 0.00 0.00 0.00 82 1012.1
20190717212325 67 110 1.0 5.0 0.00 0.00 0.00 83 1012.1
20190717211829 67 113 3.0 5.0 0.00 0.00 0.00 83 1012.1
20190717211334 67 112 1.0 4.0 0.00 0.00 0.00 83 1012.2
20190717210819 66 114 2.0 4.0 0.00 0.00 0.00 83 1012.2
20190717210318 67 114 2.0 4.0 0.00 0.00 0.00 83 1012.2
20190717205818 67 119 2.0 4.0 0.00 0.00 0.00 83 1012.2
20190717205322 67 111 2.0 4.0 0.00 0.00 0.00 83 1012.2
20190717204834 67 107 2.0 5.0 0.00 0.00 0.00 83 1012.3
20190717204322 67 110 3.0 5.0 0.00 0.00 0.00 83 1012.4
20190717203815 67 110 2.0 5.0 0.00 0.00 0.00 83 1012.5
20190717203319 67 135 2.0 5.0 0.00 0.00 0.00 82 1012.5
20190717202824 67 102 2.0 5.0 0.00 0.00 0.00 82 1012.6
20190717202322 67 104 2.0 5.0 0.00 0.00 0.00 82 1012.6
20190717201827 67 104 3.0 5.0 0.00 0.00 0.00 81 1012.6
20190717201331 68 108 3.0 5.0 0.00 0.00 0.00 81 1012.6
20190717200830 68 98 2.0 5.0 0.00 0.00 0.00 81 1012.6
20190717200334 68 98 3.0 5.0 0.00 0.00 0.00 81 1012.6
20190717195815 68 94 3.0 5.0 0.00 0.00 0.00 80 1012.7
20190717195332 68 85 3.0 5.0 0.00 0.00 0.00 80 1012.7
20190717194815 69 110 3.0 5.0 0.00 0.00 0.00 79 1012.7
20190717194316 69 113 2.0 5.0 0.00 0.00 0.00 79 1012.7
20190717193819 69 70 2.0 4.0 0.00 0.00 0.00 78 1012.7
20190717193322 69 70 1.0 3.0 0.00 0.00 0.00 78 1012.7
20190717192819 69 70 2.0 3.0 0.00 0.00 0.00 78 1012.7
20190717192322 69 70 2.0 5.0 0.00 0.00 0.00 79 1012.8
20190717191825 69 69 2.0 5.0 0.00 0.00 0.00 79 1012.8
20190717191330 69 71 2.0 4.0 0.00 0.00 0.00 79 1012.9
20190717190834 69 95 2.0 5.0 0.00 0.00 0.00 79 1012.9
20190717190339 70 81 2.0 5.0 0.00 0.00 0.00 79 1012.9
20190717185832 70 83 2.0 4.0 0.00 0.00 0.00 78 1012.9
20190717185317 70 77 1.0 4.0 0.00 0.00 0.00 77 1012.8
20190717184821 70 77 2.0 5.0 0.00 0.00 0.00 77 1012.9
20190717184324 70 81 1.0 5.0 0.00 0.00 0.00 76 1012.8
20190717183828 70 38 2.0 5.0 0.00 0.00 0.00 76 1012.8
20190717183333 70 58 2.0 5.0 0.00 0.00 0.00 75 1012.8
20190717182830 70 58 2.0 5.0 0.00 0.00 0.00 75 1012.8
20190717182334 70 71 1.0 4.0 0.00 0.00 0.00 75 1012.9
20190717181819 70 73 2.0 6.0 0.00 0.00 0.00 74 1012.9
20190717181323 71 85 2.0 6.0 0.00 0.00 0.00 73 1012.9
20190717180827 71 73 3.0 5.0 0.00 0.00 0.00 73 1013.0
20190717180326 71 13 3.0 6.0 0.00 0.00 0.00 72 1013.0
20190717175826 71 77 3.0 6.0 0.00 0.00 0.00 71 1013.0
20190717175321 71 79 3.0 5.0 0.00 0.00 0.00 71 1013.1
20190717174825 71 77 3.0 5.0 0.00 0.00 0.00 71 1013.1
20190717174334 71 62 2.0 5.0 0.00 0.00 0.00 71 1013.1
20190717173831 71 61 3.0 8.0 0.00 0.00 0.00 70 1013.1
20190717173334 72 48 4.0 7.0 0.00 0.00 0.00 69 1013.1
20190717172818 72 74 3.0 6.0 0.00 0.00 0.00 69 1013.2
20190717172331 72 81 3.0 6.0 0.00 0.00 0.00 68 1013.2
20190717171835 72 56 3.0 6.0 0.00 0.00 0.00 67 1013.2
20190717171319 72 94 2.0 5.0 0.00 0.00 0.00 67 1013.3
20190717170824 73 20 3.0 6.0 0.00 0.00 0.00 67 1013.3
20190717170331 72 11 3.0 6.0 0.00 0.00 0.00 67 1013.3
20190717165821 72 22 2.0 8.0 0.00 0.00 0.00 68 1013.3
20190717165326 72 23 4.0 8.0 0.00 0.00 0.00 67 1013.4
20190717164828 72 60 4.0 9.0 0.00 0.00 0.00 67 1013.4
20190717164325 72 33 4.0 9.0 0.00 0.00 0.00 66 1013.5
20190717163829 73 8 3.0 8.0 0.00 0.00 0.00 67 1013.5
20190717163317 72 3 4.0 8.0 0.00 0.00 0.00 66 1013.5
20190717162831 72 12 4.0 6.0 0.00 0.00 0.00 66 1013.5
20190717162335 72 360 4.0 6.0 0.00 0.00 0.00 66 1013.5
20190717161818 72 9 4.0 8.0 0.00 0.00 0.00 65 1013.6
20190717161322 73 2 4.0 8.0 0.00 0.00 0.00 66 1013.6
20190717160825 72 3 3.0 7.0 0.00 0.00 0.00 66 1013.7
20190717160324 72 320 2.0 5.0 0.00 0.00 0.00 67 1013.8
20190717155825 73 48 3.0 8.0 0.00 0.00 0.00 67 1013.8
20190717155330 72 317 3.0 8.0 0.00 0.00 0.00 67 1013.9
20190717154833 72 7 3.0 6.0 0.00 0.00 0.00 66 1014.0
20190717154317 72 6 3.0 7.0 0.00 0.00 0.00 66 1014.0
20190717153826 72 300 4.0 8.0 0.00 0.00 0.00 66 1014.0
20190717153330 72 341 4.0 8.0 0.00 0.00 0.00 66 1014.0
20190717152834 73 320 5.0 8.0 0.00 0.00 0.00 65 1014.1
20190717152317 72 358 3.0 8.0 0.00 0.00 0.00 65 1014.2
20190717151821 72 26 4.0 6.0 0.00 0.00 0.00 64 1014.2
20190717151326 72 12 3.0 6.0 0.00 0.00 0.00 67 1014.3
20190717150823 72 317 3.0 9.0 0.00 0.00 0.00 66 1014.3
20190717150327 72 43 4.0 9.0 0.00 0.00 0.00 67 1014.4
20190717145828 72 310 5.0 8.0 0.00 0.00 0.00 67 1014.5
20190717145332 73 304 5.0 8.0 0.00 0.00 0.00 66 1014.5
20190717144815 73 31 5.0 8.0 0.00 0.00 0.00 65 1014.5
20190717144322 73 38 4.0 9.0 0.00 0.00 0.00 64 1014.6
20190717143827 73 8 3.0 8.0 0.00 0.00 0.00 66 1014.6
20190717143331 73 331 4.0 8.0 0.00 0.00 0.00 66 1014.7
20190717142835 73 27 4.0 8.0 0.00 0.00 0.00 65 1014.7
20190717142330 74 336 5.0 8.0 0.00 0.00 0.00 64 1014.7
20190717141834 74 33 4.0 9.0 0.00 0.00 0.00 66 1014.8
20190717141317 74 339 5.0 9.0 0.00 0.00 0.00 64 1014.8
20190717140834 73 6 4.0 9.0 0.00 0.00 0.00 65 1014.7
20190717140319 73 345 6.0 9.0 0.00 0.00 0.00 66 1014.9
20190717135820 73 320 7.0 10.0 0.00 0.00 0.00 65 1014.9
20190717135336 73 48 4.0 10.0 0.00 0.00 0.00 67 1015.0
20190717134820 73 308 6.0 9.0 0.00 0.00 0.00 67 1015.0
20190717134328 73 327 4.0 9.0 0.00 0.00 0.00 67 1015.0
20190717133833 72 335 6.0 10.0 0.00 0.00 0.00 67 1015.0
20190717133317 72 342 5.0 10.0 0.00 0.00 0.00 69 1015.0
20190717132821 73 312 6.0 10.0 0.00 0.00 0.00 66 1015.0
20190717132334 73 321 4.0 9.0 0.00 0.00 0.00 64 1015.1
20190717131819 74 11 5.0 9.0 0.00 0.00 0.00 64 1015.1
20190717131323 74 6 3.0 9.0 0.00 0.00 0.00 64 1015.1
20190717130826 74 60 4.0 9.0 0.00 0.00 0.00 64 1015.1
20190717130330 74 16 5.0 10.0 0.00 0.00 0.00 63 1015.2
20190717125829 73 358 5.0 10.0 0.00 0.00 0.00 64 1015.2
20190717125333 74 33 5.0 9.0 0.00 0.00 0.00 63 1015.2
20190717124822 73 289 6.0 10.0 0.00 0.00 0.00 65 1015.2
20190717124326 73 358 5.0 10.0 0.00 0.00 0.00 64 1015.1
20190717123831 74 337 6.0 12.0 0.00 0.00 0.00 62 1015.2
20190717123334 74 331 6.0 12.0 0.00 0.00 0.00 63 1015.2
20190717122817 74 315 7.0 11.0 0.00 0.00 0.00 62 1015.2
20190717122334 74 346 5.0 9.0 0.00 0.00 0.00 58 1015.3
20190717121817 74 335 4.0 9.0 0.00 0.00 0.00 57 1015.3
20190717121322 75 351 5.0 8.0 0.00 0.00 0.00 55 1015.3
20190717120819 75 339 4.0 7.0 0.00 0.00 0.00 56 1015.3
20190717120322 75 12 4.0 8.0 0.00 0.00 0.00 57 1015.4
20190717115822 75 276 5.0 8.0 0.00 0.00 0.00 57 1015.4
20190717115326 75 339 3.0 11.0 0.00 0.00 0.00 57 1015.4
20190717114834 74 360 5.0 11.0 0.00 0.00 0.00 56 1015.5
20190717114316 74 328 3.0 8.0 0.00 0.00 0.00 59 1015.5
20190717113820 74 352 4.0 8.0 0.00 0.00 0.00 59 1015.6
20190717113325 73 58 3.0 6.0 0.00 0.00 0.00 59 1015.7
20190717112822 73 87 3.0 6.0 0.00 0.00 0.00 60 1015.7
20190717112327 73 318 4.0 8.0 0.00 0.00 0.00 59 1015.7
20190717111830 74 131 3.0 8.0 0.00 0.00 0.00 60 1015.8
20190717111330 74 21 3.0 6.0 0.00 0.00 0.00 60 1015.8
20190717110832 73 69 4.0 6.0 0.00 0.00 0.00 60 1015.8
20190717110338 73 53 3.0 6.0 0.00 0.00 0.00 60 1015.9
20190717105832 73 38 2.0 6.0 0.00 0.00 0.00 61 1015.9
20190717105321 73 114 3.0 5.0 0.00 0.00 0.00 61 1015.9
20190717104824 73 86 1.0 5.0 0.00 0.00 0.00 61 1015.8
20190717104318 72 100 3.0 5.0 0.00 0.00 0.00 61 1015.9
20190717103822 72 172 3.0 6.0 0.00 0.00 0.00 61 1015.9
20190717103327 73 71 2.0 6.0 0.00 0.00 0.00 59 1016.0
20190717102822 73 87 3.0 6.0 0.00 0.00 0.00 62 1015.9
20190717102326 73 91 2.0 8.0 0.00 0.00 0.00 63 1016.0
20190717101830 73 154 3.0 8.0 0.00 0.00 0.00 61 1016.0
20190717101324 72 204 2.0 7.0 0.00 0.00 0.00 63 1016.0
20190717100828 72 190 3.0 5.0 0.00 0.00 0.00 61 1016.0
20190717100332 72 174 3.0 6.0 0.00 0.00 0.00 62 1016.0
20190717095833 72 32 2.0 5.0 0.00 0.00 0.00 64 1016.0
20190717095320 71 79 2.0 6.0 0.00 0.00 0.00 66 1016.1
20190717094823 70 96 2.0 6.0 0.00 0.00 0.00 64 1016.0
20190717094317 70 173 4.0 7.0 0.00 0.00 0.00 66 1016.0
20190717093821 70 180 2.0 5.0 0.00 0.00 0.00 65 1016.1
20190717093326 70 177 3.0 8.0 0.00 0.00 0.00 67 1016.1
20190717092822 70 181 4.0 8.0 0.00 0.00 0.00 69 1016.1
20190717092326 70 191 2.0 6.0 0.00 0.00 0.00 67 1016.1
20190717091831 70 158 4.0 6.0 0.00 0.00 0.00 68 1016.1
20190717091324 70 164 2.0 7.0 0.00 0.00 0.00 71 1016.0
20190717090828 70 133 3.0 7.0 0.00 0.00 0.00 69 1016.1